Theta_e
312 311 311 313 317 319 313 312 313 311 312 311 310 309 307 308 306 305 305 304 306 306 307 307 307 308 308 308 308 310 311 314 312 314 312 315 321 325 330 326 326 328 323
311 309 309 310 313 316 315 310 308 307 307 305 306 306 307 306 305 304 304 303 303 304 304 305 305 305 305 305 305 307 307 308 310 310 312 315 313 322 309 317 317 314 311
311 309 307 307 308 309 311 312 311 309 308 307 306 305 304 304 303 303 302 302 302 302 303 303 304 304 304 304 304 304 305 307 308 309 308 311 313 308 312 309 311 307 307
310 308 306 306 305 305 305 305 306 306 305 305 305 305 305 304 302 302 301 301 301 301 302 303 303 303 304 304 304 304 305 306 307 307 305 307 306 308 312 308 305 306 305
309 308 306 305 304 303 303 303 302 303 303 303 303 303 302 301 301 301 301 301 301 301 301 302 302 303 303 303 304 304 304 304 305 305 304 305 305 306 306 307 305 303 303
309 307 306 304 304 303 302 302 301 301 301 301 301 301 301 300 301 301 301 301 301 301 301 301 301 301 302 302 302 303 302 302 302 302 303 303 303 304 302 303 302 302 301
310 309 306 305 304 303 303 302 301 301 300 300 300 300 300 301 301 301 301 301 300 300 300 300 300 301 301 301 301 301 301 301 301 301 301 301 302 302 301 300 300 300 299
311 309 306 305 304 303 303 302 302 301 300 299 299 299 300 300 299 300 300 300 299 299 299 299 299 299 299 299 300 300 299 299 300 300 300 299 300 299 298 297 297 299 300
311 309 306 305 304 303 303 303 302 301 300 299 299 299 299 299 299 299 299 299 298 298 299 299 299 299 298 297 298 298 298 298 298 298 296 296 296 295 295 295 296 296 299
311 309 307 305 304 304 303 303 302 301 300 299 299 298 298 298 298 298 298 298 298 298 298 298 298 298 297 297 297 297 296 297 296 295 295 294 294 294 294 294 294 294 295
311 310 308 306 305 304 303 303 302 301 300 300 298 298 298 298 298 298 298 298 297 297 297 297 297 296 296 296 296 295 295 295 295 294 293 293 293 293 293 293 293 293 293
312 310 308 306 305 304 303 303 302 301 300 299 298 298 297 297 297 297 297 297 297 296 296 296 296 295 295 295 294 295 295 295 295 294 293 293 292 292 292 292 292 292 292
312 311 309 307 306 304 303 303 302 301 299 299 298 297 297 297 297 297 296 296 296 296 295 296 295 295 294 294 293 294 294 294 294 294 293 293 292 292 291 291 291 291 291
313 312 310 308 306 305 303 302 302 300 299 298 298 297 297 297 296 296 296 296 295 295 295 295 295 294 293 292 292 293 294 294 294 293 293 293 292 291 290 290 290 290 290
314 312 310 309 306 305 303 302 301 300 299 298 297 297 296 296 296 295 295 295 295 294 294 294 294 293 291 288 288 291 293 293 293 293 293 292 290 289 288 287 288 289 289
314 312 310 308 307 305 303 302 301 299 298 298 297 296 296 295 295 295 295 295 294 294 294 294 293 293 290 286 286 288 292 292 292 292 292 292 291 289 288 286 287 288 288
315 312 311 308 307 305 303 302 300 299 298 298 296 295 295 295 295 295 295 295 294 294 293 293 293 292 289 286 286 288 291 292 291 291 291 291 290 290 286 286 288 289 289
314 313 311 308 306 304 302 301 300 299 298 297 296 295 295 295 294 294 294 294 294 294 293 292 292 292 288 286 286 288 291 291 291 291 290 289 289 287 284 286 288 289 289
315 313 310 308 306 304 302 301 300 299 298 297 295 295 295 294 294 294 294 293 293 293 292 291 291 291 290 286 286 288 290 291 291 290 290 287 287 284 283 286 287 287 287
313 311 309 308 306 304 302 301 300 299 298 297 295 294 294 294 294 294 293 292 292 291 291 290 290 288 290 286 285 286 289 289 290 290 289 287 284 283 283 284 286 286 285
311 310 309 308 306 303 301 301 300 299 298 296 295 294 294 294 293 293 292 291 291 291 291 291 290 289 287 287 284 284 287 286 288 289 288 288 284 283 283 283 284 284 284
310 309 309 307 304 302 301 301 300 299 297 296 294 293 293 293 293 292 291 291 291 292 292 291 291 289 289 286 284 284 283 283 287 287 286 285 283 283 284 284 283 284 286
310 308 307 305 303 301 301 301 300 298 297 295 294 293 293 292 292 292 292 291 291 292 291 291 291 290 289 288 286 285 285 284 286 285 284 283 284 284 285 284 284 285 285
308 307 307 305 303 302 301 301 299 297 296 294 293 293 292 291 291 291 291 291 291 291 291 290 290 289 288 286 286 286 286 285 285 284 286 285 285 285 285 285 285 285 284
307 307 307 305 303 302 301 300 298 297 295 294 293 292 292 291 291 291 290 291 290 290 290 289 288 288 287 283 281 281 282 281 282 284 285 284 284 284 284 284 284 284 284
307 306 306 303 302 301 301 299 298 296 295 294 293 292 291 292 291 290 288 287 285 284 285 284 286 283 280 279 280 280 279 279 281 284 283 283 282 282 282 282 282 283 283
Wind_Speed
10 9 8 9 10 11 12 13 17 17 15 14 14 12 13 11 12 12 13 14 13 13 11 10 11 10 12 12 14 12 11 11 17 12 16 14 10 8 8 11 13 12 16
11 10 10 10 10 12 12 13 13 12 10 10 11 11 11 11 12 11 13 13 13 13 13 11 11 11 9 13 14 14 13 10 15 13 12 5 13 4 22 7 11 16 19
14 12 12 12 12 12 12 12 12 12 11 12 13 13 13 11 10 9 11 12 13 13 13 12 12 11 11 12 13 14 14 11 11 13 9 5 5 20 4 14 11 22 21
14 14 15 14 13 13 14 14 13 13 12 10 10 9 9 11 9 10 10 11 12 12 12 12 11 11 11 12 11 12 12 12 12 8 11 5 6 5 8 11 25 20 25
15 14 16 15 14 14 14 14 14 13 12 12 12 12 12 11 10 9 9 10 10 11 11 11 11 11 11 11 12 12 13 12 11 10 11 9 11 7 12 12 19 27 25
17 18 17 17 16 15 15 15 15 14 13 12 13 13 12 11 10 8 8 8 8 9 11 11 11 12 12 12 12 12 13 12 11 11 11 11 12 14 10 13 21 25 24
20 19 21 20 19 18 17 17 16 15 14 13 13 13 12 12 10 8 7 7 8 8 11 11 12 12 11 10 10 11 11 12 11 12 11 12 12 14 16 19 22 21 31
21 21 24 23 23 21 19 18 17 17 15 14 13 12 11 10 9 8 8 8 9 9 9 9 10 10 10 11 10 10 11 11 11 12 12 12 13 14 15 17 22 16 18
22 22 25 24 24 23 21 20 19 17 15 14 13 11 10 10 10 9 9 9 9 8 8 9 9 10 11 12 11 11 13 12 12 12 13 13 13 15 15 17 19 18 13
25 23 26 26 24 23 22 20 19 19 17 15 13 11 10 9 10 10 11 10 9 9 9 9 9 10 12 13 12 10 12 12 12 12 14 14 14 15 16 17 19 21 23
28 25 28 28 26 25 24 22 21 19 17 15 14 13 11 10 10 10 10 10 10 9 9 8 9 10 11 12 11 10 12 12 12 13 13 14 15 16 16 18 20 22 25
28 25 31 32 29 27 25 23 21 20 17 15 14 12 11 10 10 10 9 9 9 9 9 9 9 10 10 10 11 11 11 12 13 13 13 14 15 16 17 20 21 23 26
27 25 29 31 31 29 26 24 23 21 18 17 15 13 12 11 11 10 10 10 10 9 9 9 8 8 9 10 11 10 11 11 11 12 14 14 16 18 20 22 24 25 27
29 26 24 30 32 30 28 26 24 22 21 19 17 15 14 13 12 11 11 10 10 10 9 8 7 7 9 10 12 11 10 10 11 12 13 14 16 18 21 23 25 27 29
29 28 26 26 33 32 30 27 26 25 22 20 18 16 15 14 13 12 11 11 10 9 8 7 6 6 9 11 14 11 10 11 12 12 13 14 17 20 19 25 27 28 29
31 29 28 32 34 34 32 30 28 26 23 21 19 18 17 15 14 13 12 11 10 9 7 6 6 6 7 12 14 9 9 10 12 14 15 16 16 22 24 27 28 25 26
30 31 30 34 36 36 35 33 31 28 25 22 21 19 18 17 15 13 12 11 10 9 7 6 5 5 7 13 14 10 8 9 11 12 14 17 19 21 27 28 26 24 24
30 28 29 37 39 38 35 33 32 30 27 24 22 20 19 17 15 14 12 11 10 8 6 5 4 4 6 14 15 13 8 9 10 12 13 16 19 22 27 28 26 26 26
28 33 38 38 39 39 38 36 33 30 27 25 24 22 20 18 16 14 13 11 9 8 7 5 5 5 5 13 14 14 10 11 12 12 13 15 20 25 28 26 27 29 28
29 35 42 42 41 40 40 37 34 31 28 26 24 22 20 18 17 15 12 10 9 8 7 6 6 8 5 11 13 14 10 12 13 14 15 17 22 25 27 24 26 30 33
33 38 41 42 43 42 41 38 35 31 28 26 24 22 20 18 17 15 12 11 9 8 7 6 6 5 4 6 12 13 9 11 12 13 15 16 24 24 23 22 24 26 31
32 39 38 39 44 45 42 38 35 32 29 28 26 24 21 19 18 16 13 11 9 8 6 6 5 3 3 5 11 14 13 13 10 12 13 16 23 24 23 24 29 28 26
31 41 39 39 39 44 42 37 35 34 32 30 27 25 22 19 18 16 14 11 9 7 6 5 4 3 3 4 12 12 14 13 10 11 14 19 21 21 21 27 29 26 29
29 38 40 38 39 43 41 38 38 36 34 32 29 26 23 21 18 15 13 11 9 7 6 5 4 3 3 6 8 10 10 12 11 12 13 17 19 19 20 22 24 24 28
33 37 36 37 40 44 42 41 40 38 35 32 29 27 23 21 19 14 11 10 8 7 7 5 4 3 4 5 7 9 10 12 11 13 13 16 19 20 22 23 24 25 28
32 34 38 39 41 43 43 42 42 41 38 33 30 28 25 22 19 17 14 13 10 9 10 9 8 4 4 4 5 6 10 11 14 10 13 15 17 20 22 25 26 27 29
Wind_Direction
132 123 114 116 127 129 119 126 127 119 115 118 112 102 100 96 83 70 64 61 56 48 49 45 37 33 30 22 16 7 359 356 349 330 325 307 291 315 348 322 318 330 334
150 138 129 124 121 130 131 127 125 127 124 123 115 116 111 103 93 81 69 60 56 53 48 50 42 38 30 26 22 20 8 9 11 355 311 333 317 105 325 325 333 344 336
161 153 144 132 126 122 128 133 134 129 125 122 121 116 109 103 96 83 71 61 59 55 52 48 45 39 38 30 24 22 20 5 17 28 16 338 344 333 34 328 349 334 337
169 160 153 146 136 126 124 125 126 125 126 131 133 133 125 115 102 93 87 71 61 55 51 47 44 42 38 34 28 25 24 22 17 13 16 11 328 331 322 325 325 337 331
175 167 161 151 141 133 126 123 121 118 118 118 120 118 116 114 110 102 90 79 62 56 51 49 46 45 43 37 34 31 30 27 19 9 360 351 331 326 314 304 327 323 327
178 172 163 155 148 141 134 130 126 120 115 115 113 114 114 111 109 102 90 79 68 55 52 50 49 46 44 39 34 34 30 27 21 8 360 354 349 333 326 309 314 316 322
178 174 169 167 160 156 149 143 138 128 121 116 110 110 109 110 107 101 98 97 81 64 52 53 51 49 46 41 36 30 24 19 16 10 0 351 343 333 324 320 315 317 317
180 179 175 170 166 163 160 153 147 136 133 128 124 122 120 116 109 107 108 96 84 72 63 61 60 54 46 35 34 31 23 17 14 10 3 351 345 339 333 322 320 316 314
181 181 176 173 169 167 166 161 153 146 144 137 131 126 125 122 117 113 100 95 90 80 72 68 64 55 42 35 36 30 21 19 13 8 3 357 345 337 332 325 322 316 313
178 181 178 174 172 170 167 163 160 154 150 144 137 131 128 121 118 112 108 105 96 87 79 72 66 54 40 37 35 29 21 23 18 10 3 354 344 338 332 329 324 318 309
179 177 175 173 172 170 168 166 164 158 154 150 142 139 132 124 119 114 110 104 99 89 80 79 71 55 47 40 35 32 28 25 17 11 1 353 347 341 337 332 325 320 315
179 174 171 170 172 171 169 169 166 163 158 153 148 141 134 132 123 117 114 108 107 101 91 88 77 56 48 39 33 30 26 20 14 7 0 355 350 347 342 336 330 324 320
177 175 171 171 171 171 171 170 169 165 162 160 154 150 148 141 136 131 122 119 114 107 96 89 80 58 43 33 28 27 25 16 9 3 360 355 352 349 345 340 334 328 324
182 176 174 172 173 172 172 171 169 169 167 165 163 157 153 149 142 134 131 126 120 112 102 91 89 63 46 32 23 22 20 12 7 0 355 353 352 350 344 340 333 329 325
182 180 176 174 172 173 172 172 171 171 171 168 164 160 156 150 144 142 136 133 126 115 104 99 92 74 48 29 21 20 11 6 2 357 356 353 348 342 341 338 333 330 326
186 182 180 173 174 174 172 172 172 173 172 169 166 162 158 154 152 148 145 137 124 112 109 112 105 83 41 32 26 29 6 0 355 352 353 352 347 344 337 339 333 329 324
186 184 183 178 173 174 173 174 173 171 172 170 167 165 162 160 156 152 146 141 134 131 119 118 111 89 44 26 30 47 7 355 353 353 351 349 347 348 341 338 335 329 326
187 185 181 177 176 174 174 171 171 171 172 171 169 167 165 160 157 154 150 143 144 146 136 111 111 89 27 16 29 44 5 357 357 356 354 352 350 346 348 340 335 331 329
188 184 181 173 170 172 173 171 171 171 172 171 170 168 165 163 161 158 155 153 147 145 136 126 103 81 40 6 19 26 3 360 359 357 354 356 353 350 352 346 338 333 331
182 178 178 174 170 173 171 171 171 171 174 173 169 166 167 167 163 159 155 154 150 143 148 119 98 81 56 353 16 25 5 356 356 359 357 354 350 358 351 349 342 339 337
178 178 177 175 172 166 170 171 169 174 173 169 164 164 168 166 162 157 157 154 151 152 141 118 98 83 67 8 9 19 16 1 354 353 351 348 344 348 347 347 346 338 338
174 177 175 173 168 168 169 169 171 170 167 165 163 165 166 165 163 160 158 157 157 148 139 122 104 93 67 1 6 16 18 8 354 351 346 341 349 352 354 350 349 350 347
177 173 176 172 171 170 171 167 168 166 165 163 165 166 165 165 163 163 161 158 158 152 136 130 120 104 52 26 3 5 10 6 8 344 344 348 350 351 351 351 352 354 353
179 177 177 176 172 172 172 168 166 166 164 163 166 166 165 163 163 162 162 158 155 147 145 145 129 104 64 28 13 8 6 1 1 358 351 354 354 354 352 351 354 356 355
179 181 180 177 173 169 167 165 166 165 163 164 166 166 164 165 161 154 151 153 140 153 156 139 125 112 73 19 17 15 11 6 8 9 359 1 360 357 356 355 354 356 357
180 183 180 178 171 166 164 165 167 166 163 164 167 167 166 164 160 154 141 151 142 150 163 152 142 108 106 63 44 41 41 36 39 16 9 4 0 359 356 355 353 357 357